Helicity
13 -0 30 6 -63 -2 -21 16 302 250 212 156 179 120 31 -1 46 146 248 356 438 536 632 684 747 688 612 616 445 338 307 261 223 224 215 178 155 149 143 141 146 147 123 140
76 49 56 73 78 -19 -60 -93 -67 -18 54 80 114 134 149 197 92 124 295 394 392 518 615 707 738 726 736 705 454 410 321 256 295 238 213 173 163 166 171 174 179 162 148 150
132 42 35 -8 12 -17 20 45 6 -86 -3 3 60 83 94 176 151 131 232 324 394 559 677 770 873 874 858 690 522 409 306 336 298 269 232 198 188 184 183 186 171 182 196 155
143 100 99 54 52 49 6 28 64 42 -76 -60 38 130 106 107 172 181 207 192 336 573 719 780 858 858 853 739 545 329 396 327 292 280 239 213 213 209 201 185 206 225 226 155
176 122 145 316 79 59 25 101 83 77 45 24 90 80 80 41 20 51 136 327 462 619 750 756 907 946 869 737 634 373 294 287 287 283 247 236 232 216 212 235 257 257 234 226
190 177 144 101 82 37 87 90 36 17 24 36 40 75 85 28 79 87 170 369 550 689 866 845 899 813 861 685 319 309 334 269 290 260 248 249 233 256 248 269 265 243 234 186
90 302 273 181 82 98 77 52 66 40 23 38 75 127 72 119 132 201 248 482 633 668 741 834 896 798 662 363 354 372 309 297 289 267 266 258 271 263 266 271 255 217 192 163
57 23 -3 -36 40 50 6 67 46 1 10 43 85 110 219 274 284 287 305 392 480 588 614 526 554 565 441 399 371 317 325 313 324 291 286 259 269 250 250 232 214 190 173 159
81 68 32 37 47 3 -23 -4 -8 12 -4 43 78 73 179 274 341 397 465 468 488 557 598 524 519 526 507 381 293 297 300 318 323 302 263 226 238 232 221 203 190 170 155 149
68 46 17 35 20 16 24 34 15 31 92 129 132 160 246 324 384 391 403 453 513 584 582 601 462 352 366 319 297 301 308 295 265 246 230 226 222 206 199 189 165 146 134 118
50 16 36 48 79 84 63 61 37 49 74 187 252 228 291 346 406 421 433 381 343 399 384 320 319 308 288 275 268 275 254 236 213 205 219 234 207 174 170 123 125 113 93 92
82 74 96 27 86 93 52 41 -1 113 135 176 229 304 322 381 399 425 460 444 441 377 368 306 294 270 227 207 215 219 201 196 196 206 222 218 214 207 143 116 86 81 72 93
67 50 49 47 43 106 70 78 110 19 32 217 264 376 434 471 387 348 311 340 289 277 275 278 269 221 173 183 177 168 185 181 178 201 210 223 217 194 163 128 136 126 77 75
94 97 43 69 61 69 53 49 114 74 181 348 492 481 483 470 401 277 245 232 231 232 217 231 235 218 186 173 175 171 168 187 192 190 204 205 182 158 153 141 133 120 113 119
68 91 92 60 103 87 124 154 184 241 358 505 563 515 417 347 249 167 159 167 198 214 204 219 224 191 174 173 177 197 224 205 189 193 182 162 160 158 137 133 122 115 115 107
71 86 44 118 109 108 133 152 214 268 416 481 442 224 171 90 131 167 160 174 200 150 158 177 162 126 146 180 193 206 203 218 225 186 165 163 155 145 139 133 129 117 109 94
-100 96 114 94 70 140 141 155 142 187 277 213 114 119 144 206 203 182 173 152 161 137 131 157 148 127 147 173 181 173 191 192 171 202 188 151 154 147 142 135 123 110 95 89
-39 86 21 55 149 152 177 204 167 142 78 85 114 143 172 185 173 161 158 165 205 200 157 160 152 156 173 171 183 197 185 155 158 156 179 181 159 149 138 130 122 108 95 95
58 135 119 93 150 105 159 90 99 104 122 124 111 102 134 160 173 162 170 195 184 174 116 146 150 164 158 159 181 192 152 161 147 149 162 170 168 152 137 129 119 101 95 94
8 119 151 178 141 151 103 120 130 136 120 133 138 134 124 127 153 153 147 142 119 95 144 134 145 153 157 154 163 200 199 181 183 191 192 177 162 147 132 121 113 106 110 104
90 126 145 123 54 50 115 113 128 116 101 108 111 104 99 102 134 143 132 103 74 106 125 134 140 144 140 147 160 178 193 185 207 192 182 163 153 140 132 125 132 128 125 128
127 114 97 60 77 106 123 145 163 156 132 117 112 121 128 110 107 94 74 87 95 122 127 125 118 126 133 149 164 172 172 174 177 174 172 162 151 156 151 153 146 143 148 150
87 65 89 95 113 129 139 109 102 128 119 98 105 105 91 84 95 118 69 50 102 129 135 123 129 127 137 151 156 153 148 158 155 148 146 147 145 157 170 157 147 150 156 153
85 124 154 158 170 151 122 67 107 93 98 95 89 87 120 122 88 72 84 97 128 153 133 134 132 136 152 168 178 175 162 155 153 144 142 159 178 173 173 160 162 154 165 169
101 128 126 141 130 116 129 113 117 96 99 82 76 79 92 92 89 65 99 106 138 152 133 131 135 147 164 171 176 169 154 148 144 155 174 184 175 175 165 167 167 162 152 143
70 73 77 72 85 95 94 85 88 75 95 97 81 83 83 87 91 119 119 141 157 169 153 150 156 164 166 162 158 145 132 134 158 185 190 182 181 179 178 166 156 151 146 142
66 88 100 99 80 78 72 73 99 76 76 102 108 75 92 113 121 140 159 177 177 174 161 158 156 149 142 135 124 112 113 143 185 199 189 176 171 160 146 138 138 141 159 180
Wind_Speed
100 102 101 97 95 87 80 73 78 79 81 86 92 99 96 83 71 54 49 44 44 42 40 39 34 28 23 18 15 13 12 13 18 22 22 24 29 33 34 38 41 42 37 42
108 99 87 92 87 97 93 86 86 81 91 93 104 95 90 87 81 70 60 55 49 46 42 39 36 30 24 20 16 13 11 14 19 19 20 23 29 30 33 37 41 39 36 42
121 104 108 119 103 96 93 85 80 86 90 99 90 87 81 83 78 67 55 49 47 46 44 42 39 32 27 21 15 14 12 15 16 18 20 24 26 29 35 38 37 38 41 37
112 110 133 106 89 87 93 97 90 91 90 92 85 84 76 67 66 50 48 45 43 43 42 36 31 29 24 18 14 13 17 17 13 16 21 23 26 32 34 37 36 37 40 34
98 106 100 91 96 91 84 98 78 78 81 86 79 76 73 67 68 67 61 48 43 38 35 32 29 26 22 18 16 18 20 16 15 16 19 22 28 31 33 33 34 36 37 39
84 95 112 87 75 70 73 89 68 84 77 69 65 75 77 54 56 45 30 20 19 22 19 22 23 25 23 21 21 22 17 15 12 14 19 23 27 28 30 30 32 35 38 42
82 77 73 72 77 59 73 77 73 66 53 61 64 61 57 50 48 37 22 8 10 14 14 14 16 18 20 18 20 18 10 10 16 19 20 23 25 25 27 29 33 36 40 45
71 68 73 58 48 53 58 58 57 62 61 59 45 41 34 33 31 27 18 8 8 8 13 8 14 11 15 18 13 8 8 12 17 18 22 23 22 25 27 31 35 39 41 46
74 77 74 71 65 67 68 72 77 67 66 53 41 40 34 31 25 23 17 12 8 6 4 3 3 3 11 10 8 7 10 14 17 19 22 22 24 26 30 33 36 39 40 44
64 73 82 83 83 72 67 76 79 74 62 42 43 39 34 27 22 22 16 9 3 3 6 9 7 8 7 7 5 8 13 15 18 20 23 25 25 26 29 32 35 37 38 42
71 72 69 70 70 62 58 55 61 63 45 34 29 31 23 17 16 12 10 6 6 2 4 7 10 10 9 5 6 12 13 16 19 21 23 25 25 26 29 31 33 35 36 39
67 54 62 66 63 58 61 65 63 54 46 32 17 15 14 13 11 9 3 3 8 8 6 7 7 7 4 4 9 12 16 17 19 21 24 24 26 30 31 32 33 32 34 36
74 58 67 71 47 46 64 42 47 52 42 27 22 11 7 7 8 8 9 4 4 6 5 4 3 4 5 11 11 14 15 16 18 22 22 24 29 30 34 35 37 38 37 39
73 70 66 54 55 49 37 42 29 30 17 18 16 16 10 2 3 4 7 5 2 1 2 3 5 8 9 10 14 15 15 18 20 20 22 28 30 30 32 35 41 41 42 41
71 62 44 65 45 38 33 29 28 24 19 15 16 8 4 4 5 4 6 6 4 3 5 5 7 9 12 13 15 16 20 21 21 23 26 28 28 30 32 34 37 41 42 43
56 51 40 26 12 24 29 27 26 25 15 12 7 6 9 15 16 9 8 13 12 6 6 8 8 9 12 16 20 22 22 23 24 25 26 28 29 31 32 36 42 43 46 48
46 54 38 27 4 30 26 21 12 11 6 6 8 13 17 14 13 13 8 4 8 11 9 8 8 11 15 20 21 21 22 27 27 27 29 28 29 30 35 40 42 44 47 47
53 60 15 18 14 28 21 14 8 12 12 14 17 20 24 21 17 14 10 8 9 11 11 11 11 14 18 19 20 23 25 27 28 27 28 29 29 33 37 40 42 47 49 51
51 25 19 6 14 16 7 11 15 14 20 20 26 24 18 14 12 11 8 8 9 10 12 12 13 16 17 18 21 25 31 24 24 29 29 30 32 36 40 41 45 48 53 56
55 17 12 7 9 8 9 15 22 25 25 24 20 16 13 10 9 8 8 9 11 17 11 11 14 17 20 20 21 24 30 24 24 30 31 31 36 39 40 43 47 49 53 56
49 34 14 8 21 24 28 32 33 29 25 20 16 13 11 10 10 11 10 12 12 16 14 13 17 19 20 20 21 24 29 27 28 32 33 35 36 38 40 42 46 51 55 57
7 17 24 34 35 27 25 25 21 19 18 15 12 13 14 14 15 13 14 15 14 14 16 16 16 18 19 20 23 27 27 26 27 30 34 33 35 38 39 41 44 46 48 50
10 11 19 25 27 28 24 27 25 20 16 14 15 16 16 16 15 13 14 14 17 13 15 15 18 18 20 21 21 26 25 25 27 28 31 33 34 33 35 38 41 44 48 53
10 8 9 12 20 24 23 18 13 12 15 15 16 17 16 15 15 16 23 17 15 13 16 18 20 20 22 21 20 24 27 26 26 27 29 31 32 34 37 39 43 46 50 52
10 9 10 14 15 13 14 11 12 13 14 14 15 15 16 16 21 12 16 18 16 15 18 20 21 21 22 22 23 27 29 29 27 27 28 31 33 37 40 43 46 48 50 52
8 8 9 7 10 11 11 12 13 13 14 14 15 15 15 17 23 20 15 16 17 17 19 22 23 22 22 23 27 29 28 29 26 26 28 33 37 40 42 44 47 50 52 53
7 5 4 5 6 9 11 12 12 12 12 13 13 14 15 17 19 19 19 18 18 19 21 23 24 22 22 26 29 27 28 28 25 28 33 36 39 41 43 46 49 50 51 52
Wind_Direction
280 282 284 282 284 283 282 282 281 284 287 283 282 283 285 289 290 287 268 268 262 250 245 242 243 242 237 238 246 265 286 304 313 315 322 329 335 338 341 343 345 348 353 353
279 283 285 283 284 284 282 279 280 283 285 284 281 286 284 285 286 282 264 263 258 252 246 241 238 232 231 235 236 252 277 301 316 317 324 329 335 340 342 345 347 352 353 351
277 281 282 276 279 283 282 280 278 278 285 284 283 284 288 289 285 282 267 256 253 246 239 241 237 230 231 230 241 253 277 308 315 319 323 332 339 341 341 343 349 351 351 354
278 281 272 278 280 283 285 282 281 280 282 281 287 289 292 292 288 274 267 263 262 255 250 242 236 233 233 239 248 247 290 308 318 320 326 336 339 340 343 345 348 351 353 357
276 278 279 283 280 282 286 285 287 285 281 283 283 287 290 289 288 284 279 263 256 251 246 241 232 224 220 240 252 272 291 307 314 325 331 336 337 340 344 348 352 353 356 355
276 275 274 284 292 289 289 283 287 291 286 290 292 282 283 297 308 305 298 256 238 232 227 232 233 223 237 248 265 275 294 301 326 340 334 337 339 344 347 353 353 353 352 352
284 275 281 290 285 293 280 282 293 294 289 293 294 296 303 305 303 308 307 250 219 208 215 213 206 216 241 255 270 284 301 321 330 337 338 341 346 350 353 352 351 348 348 348
280 281 287 289 292 287 289 292 296 304 307 303 305 307 312 312 304 302 305 303 265 236 255 226 170 213 247 272 286 298 320 331 334 341 340 345 349 350 349 347 345 345 345 345
273 276 280 284 291 291 289 285 283 292 295 307 307 300 310 305 300 296 301 309 313 274 218 174 199 238 267 294 294 302 319 328 335 342 344 347 344 344 343 343 344 343 345 346
285 282 280 283 283 291 295 287 285 286 293 302 304 302 301 300 302 299 303 296 229 240 279 292 295 296 295 310 299 307 318 326 333 336 339 341 342 343 343 343 343 345 346 346
284 288 295 296 295 293 300 306 302 295 293 296 306 304 303 297 295 297 289 284 276 235 241 288 288 287 296 299 312 312 322 330 335 337 337 340 342 342 343 345 346 345 346 347
289 304 302 302 309 304 297 297 301 292 291 289 300 322 320 307 291 277 273 264 277 300 304 298 292 303 319 323 315 322 327 333 334 336 339 338 339 340 343 345 345 345 347 347
289 305 299 297 314 311 298 307 299 293 294 280 297 300 320 305 277 245 254 275 276 297 316 325 12 340 345 319 335 336 337 336 337 337 337 339 339 337 336 342 347 350 348 347
302 300 296 299 303 309 308 300 317 308 316 296 301 305 309 341 107 234 256 263 279 25 30 336 358 338 341 353 344 346 344 342 338 338 339 338 337 338 341 340 338 343 347 347
296 296 296 267 302 298 305 315 313 314 316 325 306 321 3 84 124 149 121 112 84 56 325 13 15 15 357 358 355 351 344 338 340 339 338 339 339 340 340 341 341 341 344 345
295 293 295 310 315 308 304 303 311 311 330 321 355 59 87 105 114 116 111 110 106 89 72 63 38 26 7 357 349 342 341 342 341 339 339 340 340 337 339 338 337 338 339 340
209 267 285 291 143 300 303 320 345 332 52 78 92 99 106 103 99 105 93 8 72 85 74 53 31 9 355 349 350 348 345 341 337 338 338 334 335 336 337 336 336 337 337 340
202 260 177 188 302 298 317 347 48 89 95 99 104 110 115 115 113 106 87 52 28 8 359 4 9 358 351 352 353 350 346 343 344 340 339 338 337 337 336 335 336 336 336 338
260 246 253 187 296 316 27 94 108 107 109 111 115 117 112 102 98 86 61 29 5 352 354 4 4 358 355 352 348 346 341 338 340 341 339 336 335 336 334 334 334 334 335 335
214 239 219 274 307 302 99 104 109 113 113 112 102 94 87 74 77 56 29 10 357 351 28 23 8 355 351 349 347 346 347 345 341 340 338 335 332 334 335 334 335 336 337 337
120 111 108 328 110 115 121 119 117 115 111 106 97 81 69 60 64 68 37 359 17 14 24 16 0 355 353 351 347 341 341 339 339 339 338 335 336 336 336 337 338 338 338 339
343 78 101 112 115 110 111 112 105 98 96 86 54 61 71 70 78 62 28 19 26 24 14 10 6 1 357 352 349 347 341 342 341 342 340 341 340 339 340 341 342 343 345 345
286 47 86 99 106 109 103 107 106 98 93 85 82 87 84 79 78 54 10 21 17 27 17 11 4 1 357 353 351 350 348 343 341 343 342 343 344 346 347 346 346 346 345 343
3 23 64 77 94 102 105 93 72 61 73 69 74 80 70 54 37 26 11 28 27 32 18 10 5 1 356 353 350 350 348 346 344 345 346 349 349 349 349 347 346 345 344 345
18 51 78 94 97 89 86 72 59 63 60 51 58 62 50 43 18 38 28 29 31 30 15 10 7 4 1 358 354 348 346 346 348 349 350 350 350 349 347 347 346 346 346 346
46 67 78 68 84 85 82 80 76 70 63 57 49 46 40 33 14 25 37 28 25 21 11 6 3 2 359 357 353 350 351 352 354 356 355 352 350 348 347 348 347 346 346 347
10 32 14 355 32 73 83 83 76 73 64 55 42 36 29 27 23 26 25 24 21 14 6 3 3 6 6 1 359 360 359 360 2 358 353 352 350 349 348 348 347 348 349 349